Regional Weather Roundup
Issued by NWS

Home | Current Version | Previous Version | Graphics & Text | Print | Product List | Glossary On
Versions: 1 2 3 4 5 6 7 8 9 10 11 12 13 14 15 16 17 18 19 20 21 22 23 24 25 26 27
000
ASUS45 KCYS 260710
RWRWY

WYOMING REGIONAL WEATHER ROUNDUP
NATIONAL WEATHER SERVICE CHEYENNE WY
100 AM MDT WED APR 26 2017

NOTE:  "FAIR" INDICATES FEW OR NO CLOUDS BELOW 12,000 FEET
WITH NO SIGNIFICANT WEATHER AND/OR OBSTRUCTIONS TO VISIBILITY.

WYZ001-260800-
YELLOWSTONE NATIONAL PARK

CITY           SKY/WX    TMP DP  RH WIND       PRES   REMARKS
LK YELLOWSTONE NOT AVBL
W YELLOWSTONE  NOT AVBL

$$
WYZ002>013-054>058-071-098>099-260800-
NORTHERN WYOMING

CITY           SKY/WX    TMP DP  RH WIND       PRES   REMARKS
JACKSON        MOCLDY    34  34 100 W3        29.87F
CODY           FAIR      36  33  89 S10       29.83F WCI  28
GREYBULL       CLOUDY    38  31  76 SW3       29.84S
WORLAND        FAIR      33  33 100 SE5       29.84F WCI  29
SHERIDAN       CLOUDY    32  28  85 E6        29.87S WCI  26
BUFFALO        NOT AVBL
GILLETTE       CLOUDY    27  26  96 W3        29.88F
HULETT         CLOUDY    27  23  86 CALM      29.89S
NEWCASTLE      FAIR      27  23  86 N7        29.87S WCI  19

$$
WYZ014>020-022>026-101>103-260800-
CENTRAL WYOMING

CITY           SKY/WX    TMP DP  RH WIND       PRES   REMARKS
BIG PINEY      CLOUDY    33  30  88 S3        29.90R
PINEDALE       CLOUDY    32  32 100 CALM      29.90R
DUBOIS         LGT SNOW  30  30 100 CALM      29.85S
LANDER         FAIR      33  26  75 SW3       29.84S
RIVERTON       CLOUDY    32  30  92 NE5       29.85S WCI  27
CASPER         FAIR      27  24  89 CALM      29.87F
DOUGLAS        CLOUDY    31  27  85 NW13      29.88F WCI  21

$$
WYZ021-027>030-104>119-260800-
SOUTHERN WYOMING

CITY           SKY/WX    TMP DP  RH WIND       PRES   REMARKS
EVANSTON       MOCLDY    31  29  92 SW9       29.94S WCI  23
KEMMERER         N/A     32  32 100 CALM      29.93S
FORT BRIDGER   FAIR      33  32  96 W12       29.96S WCI  24
ROCK SPRINGS   CLOUDY    34  30  85 SW8       29.90R WCI  27
DIXON            N/A     29  27  90 E3        29.92R
RAWLINS        FAIR      29  24  82 CALM      29.88S
SARATOGA       CLOUDY    30  27  86 S12       29.89S WCI  21
LARAMIE        MOCLDY    25  22  88 NW3       29.82F
CHEYENNE       CLOUDY    28  24  85 N9        29.82F WCI  19
TORRINGTON     CLOUDY    32  26  78 N7        29.85F WCI  26
PINE BLUFFS    CLOUDY    30  27  86 NW14      29.84F WCI  20

$$




USA.gov is the U.S. government's official web portal to all federal, state and local government web resources and services.